TimeCXT,TemperatureF,Dew PointF,Humidity,Sea Level PressureIn,VisibilityMPH,Wind Direction,Wind SpeedMPH,Gust SpeedMPH,PrecipitationIn,Events,Conditions,WindDirDegrees,DateUTC
12:00 AM,77,72,82,29.89,,SE,10.4,,,,Overcast,130,2012-11-05 17:00:00
12:00 AM,77.0,73.4,89,29.92,6.2,SE,10.4,-,N/A,,Mostly Cloudy,130,2012-11-05 17:00:00
1:00 AM,77,72,82,29.87,,ESE,12.7,,,,,120,2012-11-05 18:00:00
1:00 AM,77.0,73.4,89,29.89,6.2,ESE,12.7,-,N/A,,Overcast,120,2012-11-05 18:00:00
2:00 AM,77.0,71.6,83,29.89,6.2,SE,12.7,-,N/A,,Mostly Cloudy,130,2012-11-05 19:00:00
3:00 AM,77,73,84,29.85,,SE,12.7,,,,Overcast,130,2012-11-05 20:00:00
3:00 AM,77.0,73.4,89,29.89,6.2,SE,12.7,-,N/A,,Overcast,130,2012-11-05 20:00:00
4:00 AM,76,74,91,29.85,,SE,13.8,,,,,130,2012-11-05 21:00:00
4:00 AM,77.0,73.4,89,29.89,6.2,SE,13.8,-,N/A,,Overcast,130,2012-11-05 21:00:00
5:00 AM,77.0,71.6,83,29.89,6.2,SE,12.7,-,N/A,,Overcast,130,2012-11-05 22:00:00
6:00 AM,77,72,82,29.88,,SE,12.7,,,,,130,2012-11-05 23:00:00
6:00 AM,77.0,73.4,89,29.92,6.2,SE,12.7,-,N/A,,Overcast,130,2012-11-05 23:00:00
7:00 AM,78,73,79,29.89,,ESE,16.1,,,,,120,2012-11-06 00:00:00
7:00 AM,78.8,73.4,83,29.92,6.2,ESE,16.1,-,N/A,,Overcast,120,2012-11-06 00:00:00
8:00 AM,80.6,71.6,74,29.95,6.2,ESE,17.3,-,N/A,,Mostly Cloudy,120,2012-11-06 01:00:00
9:00 AM,80,73,74,29.91,,ESE,17.3,,,,,120,2012-11-06 02:00:00
9:00 AM,80.6,73.4,79,29.95,6.2,ESE,17.3,-,N/A,,Mostly Cloudy,120,2012-11-06 02:00:00
10:00 AM,81,73,71,29.91,,ESE,17.3,,,,,120,2012-11-06 03:00:00
10:00 AM,80.6,73.4,79,29.95,6.2,ESE,17.3,-,N/A,,Overcast,120,2012-11-06 03:00:00
11:00 AM,80.6,73.4,79,29.95,6.2,ESE,17.3,-,N/A,,Overcast,120,2012-11-06 04:00:00
12:00 PM,81,72,68,29.89,,ESE,17.3,,,,Overcast,120,2012-11-06 05:00:00
12:00 PM,80.6,71.6,74,29.92,6.2,ESE,17.3,-,N/A,,Mostly Cloudy,120,2012-11-06 05:00:00
1:00 PM,81,72,67,29.87,,SE,17.3,,,,,130,2012-11-06 06:00:00
1:00 PM,80.6,71.6,74,29.89,6.2,SE,17.3,-,N/A,,Overcast,130,2012-11-06 06:00:00
1:51 PM,80.6,71.6,74,29.89,6.2,ESE,17.3,-,N/A,,Mostly Cloudy,120,2012-11-06 06:51:00
2:00 PM,80.6,71.6,74,29.89,6.2,ESE,16.1,-,N/A,,Mostly Cloudy,120,2012-11-06 07:00:00
3:00 PM,79,72,73,29.84,,ESE,15.0,,,,Overcast,120,2012-11-06 08:00:00
3:00 PM,78.8,71.6,78,29.89,6.2,ESE,15.0,-,N/A,,Overcast,120,2012-11-06 08:00:00
3:53 PM,78.8,69.8,74,29.89,6.2,SE,13.8,-,N/A,,Overcast,130,2012-11-06 08:53:00
4:00 PM,79,70,68,29.84,,SE,13.8,,,,,130,2012-11-06 09:00:00
4:00 PM,78.8,69.8,74,29.86,6.2,SE,13.8,-,N/A,,Overcast,130,2012-11-06 09:00:00
5:00 PM,78.8,71.6,78,29.89,6.2,SE,12.7,-,N/A,,Mostly Cloudy,130,2012-11-06 10:00:00
5:12 PM,77.0,73.4,89,29.89,6.2,SE,13.8,-,N/A,,Overcast,140,2012-11-06 10:12:00
6:00 PM,77,72,80,29.87,,SE,13.8,,,,Overcast,140,2012-11-06 11:00:00
6:00 PM,77.0,71.6,83,29.92,6.2,SE,13.8,-,N/A,,Overcast,130,2012-11-06 11:00:00
7:00 PM,77,72,82,29.89,,SE,12.7,,,,,130,2012-11-06 12:00:00
7:00 PM,77.0,73.4,89,29.92,6.2,SE,12.7,-,N/A,,Overcast,130,2012-11-06 12:00:00
8:00 PM,75.2,71.6,89,29.95,6.2,SE,11.5,-,N/A,,Overcast,130,2012-11-06 13:00:00
9:00 PM,77,71,77,29.91,,SE,13.8,,,,Overcast,140,2012-11-06 14:00:00
9:00 PM,77.0,71.6,83,29.95,6.2,SE,13.8,-,N/A,,Overcast,130,2012-11-06 14:00:00
9:07 PM,77.0,71.6,83,29.95,6.2,SE,13.8,-,N/A,,Overcast,140,2012-11-06 14:07:00
9:21 PM,77.0,71.6,83,29.95,6.2,SE,15.0,-,N/A,,Overcast,130,2012-11-06 14:21:00
10:00 PM,77,71,77,29.91,,SE,12.7,,,,,140,2012-11-06 15:00:00
10:00 PM,77.0,71.6,83,29.95,6.2,SE,12.7,-,N/A,,Overcast,140,2012-11-06 15:00:00
10:06 PM,77.0,71.6,83,29.95,6.2,SE,15.0,-,N/A,,Overcast,140,2012-11-06 15:06:00
10:23 PM,77.0,71.6,83,29.95,6.2,SE,15.0,-,N/A,,Overcast,130,2012-11-06 15:23:00
11:00 PM,77.0,69.8,78,29.92,6.2,SE,12.7,-,N/A,,Overcast,140,2012-11-06 16:00:00
11:15 PM,77.0,69.8,78,29.92,6.2,SE,15.0,-,N/A,,Overcast,130,2012-11-06 16:15:00